La Vinya d'en Daniel





Hora UTC 07:10
Temperatura 25.4 ºC
Humitat 68.0 %
Pressió 1021.1 hPa
Pluja 0.0 mm
Velocitat vent 4.8 km/h
Direcció vent E

Dades diàries 2022-07-07



Hora UTC (hivern +1h; estiu +2h)
Temperatura (ºC) Humitat (%) Pressió (hPa) Velocitat vent (km/h) Precipitació (mm)
Hora UTC Aire Humitat Pressió Vel. Dir. Vel. Max Dir. Intent. màx 5 min.
00:05 20.2 80.0 1020.7 0.0 N 0.0 0.0
00:10 20.0 81.0 1020.8 0.0 N 4.8 0.0
00:15 19.8 81.0 1021.0 4.8 N 6.4 0.0
00:20 19.7 80.0 1020.8 4.8 N 8.0 0.0
00:25 19.6 80.0 1021.0 0.0 N 8.0 0.0
00:30 19.6 81.0 1020.9 0.0 N 6.4 0.0
00:35 19.5 81.0 1021.0 3.2 N 4.8 0.0
00:40 19.5 80.0 1021.0 4.8 N 8.0 0.0
00:45 19.5 81.0 1020.9 4.8 N 8.0 0.0
00:50 19.4 80.0 1020.9 4.8 N 8.0 0.0
00:55 19.3 81.0 1020.9 4.8 N 6.4 0.0
01:00 19.3 80.0 1020.9 0.0 N 6.4 0.0
01:05 19.4 80.0 1020.9 3.2 N 6.4 0.0
01:10 19.4 80.0 1020.8 3.2 N 6.4 0.0
01:15 19.4 80.0 1020.8 3.2 N 6.4 0.0
01:20 19.3 80.0 1020.8 3.2 N 8.0 0.0
01:25 19.3 80.0 1020.8 4.8 N 14.5 0.0
01:30 19.4 79.0 1020.8 8.0 N 14.5 0.0
01:35 19.6 79.0 1020.9 9.7 N 14.5 0.0
01:40 19.7 79.0 1020.9 4.8 N 14.5 0.0
01:45 19.5 79.0 1020.8 1.6 N 9.7 0.0
01:50 19.4 79.0 1020.8 6.4 N 8.0 0.0
01:55 19.7 79.0 1020.8 4.8 N 8.0 0.0
02:00 19.9 78.0 1020.7 0.0 N 6.4 0.0
02:05 19.9 78.0 1020.7 3.2 N 6.4 0.0
02:10 19.9 79.0 1020.7 0.0 N 6.4 0.0
02:15 19.8 78.0 1020.7 3.2 N 6.4 0.0
02:20 19.9 79.0 1020.6 3.2 N 8.0 0.0
02:25 20.1 79.0 1020.5 1.6 N 8.0 0.0
02:30 20.1 80.0 1020.5 3.2 N 6.4 0.0
02:35 20.1 80.0 1020.6 1.6 N 8.0 0.0
02:40 20.1 81.0 1020.6 0.0 N 8.0 0.0
02:45 20.0 81.0 1020.6 0.0 N 8.0 0.0
02:50 19.9 81.0 1020.5 0.0 N 6.4 0.0
02:55 19.9 82.0 1020.6 3.2 N 8.0 0.0
03:00 19.8 82.0 1020.8 3.2 N 8.0 0.0
03:05 19.7 83.0 1020.7 0.0 N 6.4 0.0
03:10 19.7 83.0 1020.7 0.0 N 6.4 0.0
03:15 19.7 83.0 1020.6 0.0 N 6.4 0.0
03:20 19.7 83.0 1020.7 3.2 N 8.0 0.0
03:25 19.7 83.0 1020.8 4.8 N 8.0 0.0
03:30 19.6 83.0 1020.7 3.2 N 8.0 0.0
03:35 19.6 83.0 1020.6 1.6 N 8.0 0.0
03:40 19.5 83.0 1020.6 1.6 N 6.4 0.0
03:45 19.4 83.0 1020.6 0.0 N 8.0 0.0
03:50 19.4 83.0 1020.5 0.0 N 6.4 0.0
03:55 19.3 83.0 1020.4 1.6 N 4.8 0.0
04:00 19.1 83.0 1020.5 1.6 N 3.2 0.0
04:05 19.0 83.0 1020.5 0.0 N 4.8 0.0
04:10 18.9 83.0 1020.5 4.8 N 8.0 0.0
04:15 18.9 83.0 1020.5 4.8 N 8.0 0.0
04:20 18.8 83.0 1020.5 1.6 N 6.4 0.0
04:25 18.8 83.0 1020.5 0.0 N 8.0 0.0
04:30 18.8 83.0 1020.5 0.0 N 8.0 0.0
04:35 18.8 83.0 1020.6 3.2 N 8.0 0.0
04:40 18.8 83.0 1020.6 3.2 N 12.9 0.0
04:45 18.9 83.0 1020.6 1.6 N 12.9 0.0
04:50 19.0 82.0 1020.7 1.6 N 6.4 0.0
04:55 19.1 83.0 1020.7 0.0 N 6.4 0.0
05:00 18.9 83.0 1020.6 3.2 N 4.8 0.0
05:05 19.0 83.0 1020.7 1.6 N 4.8 0.0
05:10 19.1 83.0 1020.8 0.0 N 4.8 0.0
05:15 18.9 83.0 1020.9 1.6 N 4.8 0.0
05:20 18.9 83.0 1020.9 0.0 N 3.2 0.0
05:25 18.9 83.0 1020.9 4.8 WNW 4.8 0.0
05:30 19.1 83.0 1020.9 1.6 WNW 4.8 0.0
05:35 19.4 83.0 1020.9 0.0 W 6.4 0.0
05:40 19.7 82.0 1020.9 0.0 W 3.2 0.0
05:45 19.9 82.0 1020.9 4.8 NW 4.8 0.0
05:50 20.0 83.0 1021.0 0.0 NW 4.8 0.0
05:55 20.3 83.0 1020.8 0.0 NW 3.2 0.0
06:00 20.6 81.0 1020.9 3.2 W 3.2 0.0
06:05 20.8 80.0 1021.1 0.0 NW 6.4 0.0
06:10 21.2 80.0 1021.0 0.0 NW 4.8 0.0
06:15 21.4 80.0 1020.9 0.0 NW 4.8 0.0
06:20 22.1 81.0 1021.0 0.0 NW 0.0 0.0
06:25 22.5 79.0 1020.9 0.0 NW 0.0 0.0
06:30 22.8 75.0 1020.9 0.0 W 4.8 0.0
06:35 23.1 75.0 1021.1 0.0 W 4.8 0.0
06:40 23.5 73.0 1021.0 0.0 W 1.6 0.0
06:45 24.1 73.0 1021.0 0.0 NE 1.6 0.0
06:50 24.4 70.0 1021.0 0.0 ESE 1.6 0.0
06:55 24.7 68.0 1021.0 3.2 SE 4.8 0.0
07:00 24.8 70.0 1021.0 0.0 SE 4.8 0.0
07:05 25.1 68.0 1021.0 1.6 ENE 4.8 0.0
07:10 25.4 68.0 1021.1 4.8 E 6.4 0.0
Màxima 25.4 83.0 1021.1 9.7 N 14.5 0.0
Mínima 18.7 68.0 1020.4
Total 0.0